Wind_Speed
84 83 84 84 84 86 87 87 89 91 92 94 96 98 99 100 102 103 104 105 106 107 108 109 110 111 112 113 114 116 117 119 119 120 120 121 122 122 122 121 120 119 118 117 116 113 110 108 104 102 100 99 99 101 102 103 104 104 104 103 103 103 103 101 100 99 99 103 105 104 108 111 108 107 109 108 107 107 105 101 100 99 97 92 86
89 89 89 90 91 92 92 93 94 96 97 99 100 101 101 101 101 102 103 104 106 107 109 110 112 113 114 116 117 118 119 120 120 120 120 121 122 122 122 121 120 119 118 116 115 112 110 106 103 100 98 98 99 101 102 103 104 104 105 105 105 105 105 104 103 102 102 104 107 108 109 111 111 111 112 111 108 107 105 100 98 98 95 90 84
95 95 95 96 97 97 98 99 100 101 102 103 103 102 102 102 102 102 103 105 106 108 110 112 114 116 118 119 120 120 121 121 120 120 120 121 122 122 121 120 119 118 117 115 114 112 109 105 101 98 97 98 100 101 102 103 103 104 104 105 105 105 106 106 106 106 106 106 108 110 110 110 110 110 111 110 109 107 103 99 98 97 93 89 84
98 99 100 100 101 101 102 103 104 104 104 103 103 103 103 104 105 105 106 107 109 111 113 115 117 119 121 122 122 122 121 120 120 120 120 120 121 121 120 119 118 117 115 114 112 110 107 104 101 98 98 98 100 101 102 102 102 103 103 104 104 105 107 108 109 109 109 108 108 110 110 108 108 108 108 109 108 105 101 96 93 90 86 83 80
97 98 99 100 101 102 102 103 103 103 103 103 103 104 106 107 108 109 110 111 112 114 116 118 120 122 123 123 122 121 120 120 120 120 121 120 119 120 119 118 116 114 113 112 110 108 106 103 100 99 98 98 98 99 100 100 100 101 102 102 103 105 106 108 110 111 111 110 109 109 108 108 107 106 108 109 103 98 99 97 90 85 82 78 75
99 99 99 100 101 101 102 103 103 103 104 105 107 108 109 111 112 113 114 115 116 118 120 122 124 124 124 122 121 120 119 119 119 120 120 119 118 118 117 116 114 112 110 109 107 105 103 101 99 98 97 96 96 96 96 97 97 98 99 100 102 103 105 107 109 110 110 110 109 108 107 106 105 104 107 108 102 96 99 98 91 86 83 78 75
104 102 102 102 102 102 103 104 105 107 108 110 111 113 114 115 116 117 118 118 120 121 123 124 125 124 122 121 119 118 118 118 119 119 118 118 117 116 115 113 111 108 106 104 103 102 100 98 97 95 95 94 94 94 94 94 94 95 96 98 101 102 104 105 106 107 107 107 106 106 105 104 104 105 106 106 101 98 98 95 89 89 86 79 76
107 106 105 105 105 106 106 107 109 111 113 114 116 117 117 118 118 119 120 121 122 123 123 123 123 121 120 119 118 117 116 116 117 117 117 116 114 112 110 109 106 103 101 99 98 97 96 95 94 94 93 93 92 92 93 93 93 94 96 98 100 101 101 102 104 105 104 104 103 102 103 103 104 106 105 103 101 98 97 93 87 87 86 80 77
108 108 108 108 109 110 111 112 114 115 116 117 117 117 118 118 119 120 120 121 121 121 121 120 119 118 117 116 115 114 114 114 115 115 115 114 112 108 104 102 100 98 97 96 95 95 94 93 93 92 92 92 92 92 93 94 94 95 96 97 98 99 100 101 101 102 101 100 99 99 101 102 105 106 103 100 99 95 93 91 86 85 83 79 78
108 109 110 112 113 115 116 116 116 116 116 116 116 116 116 117 118 118 118 118 118 118 117 116 115 114 113 113 112 112 113 113 113 112 111 109 106 102 99 97 95 95 94 94 94 94 93 92 92 92 92 92 92 93 94 95 95 95 95 96 97 99 99 99 99 99 99 98 96 97 100 102 104 105 101 97 95 91 89 88 85 82 80 77 76
109 111 113 115 116 116 115 115 114 113 112 112 112 112 112 113 113 114 114 114 114 113 113 113 112 111 110 110 110 110 110 109 108 107 104 101 99 97 96 95 95 94 94 94 94 93 93 92 92 92 92 93 93 94 94 94 94 94 93 94 96 98 99 98 97 97 97 96 95 96 100 103 102 101 99 94 90 87 85 86 84 81 77 74 73
109 109 109 109 109 108 107 107 107 106 106 106 106 107 107 108 109 109 110 110 110 110 110 109 109 109 108 108 107 106 105 104 102 100 98 96 95 95 95 96 95 95 95 95 94 94 93 93 92 92 93 93 94 93 93 92 92 91 91 93 95 97 98 98 98 97 96 95 94 95 100 103 100 99 99 93 86 84 84 83 82 79 75 72 70
101 100 100 100 100 100 99 100 101 101 102 102 103 103 104 104 105 106 106 107 107 107 107 107 107 107 106 105 103 101 98 97 96 96 95 94 94 94 95 96 96 96 96 96 95 95 94 94 93 93 94 94 94 93 92 91 90 90 90 91 93 94 96 97 98 98 98 97 96 96 99 101 97 96 97 91 84 83 82 81 79 77 74 72 68
99 99 99 99 98 97 98 98 99 100 100 101 101 102 102 103 103 104 105 106 106 106 106 106 105 104 102 100 97 94 93 92 93 94 94 94 94 95 96 96 96 97 97 96 96 95 95 94 94 94 94 94 94 93 92 91 89 89 89 90 91 92 93 95 97 97 99 100 100 99 99 99 96 95 94 90 83 81 80 78 76 75 73 70 67
101 101 100 99 98 98 99 100 101 102 103 103 103 104 104 104 104 105 105 106 106 105 105 104 102 100 97 95 93 91 91 92 93 94 94 94 95 96 96 97 97 97 97 97 96 96 96 95 95 94 94 94 94 93 92 90 88 88 88 88 89 89 89 92 95 96 99 101 102 101 99 96 95 93 91 88 83 82 80 76 74 73 69 68 69
105 105 103 103 103 103 104 106 108 109 109 108 108 107 106 106 106 106 106 106 105 104 103 101 99 97 95 94 92 91 91 92 93 94 94 95 95 96 96 97 97 97 97 96 96 96 96 95 94 94 94 94 94 93 91 89 88 87 86 85 85 85 86 90 93 96 99 101 102 101 97 95 93 91 88 84 81 79 78 75 74 72 66 65 69
115 114 112 111 110 110 111 113 115 115 115 114 113 111 109 108 108 107 106 105 104 102 101 100 98 97 96 95 94 92 92 93 94 94 94 95 95 96 96 96 96 96 96 96 96 96 95 94 93 93 93 93 93 92 91 89 86 85 83 81 80 81 85 88 91 94 97 100 103 101 97 95 93 89 85 81 77 75 72 70 71 72 67 63 65
124 122 119 116 115 114 116 118 120 120 118 117 115 113 111 110 109 107 105 104 103 102 101 100 100 99 99 97 96 95 94 94 94 95 95 95 95 95 95 95 95 94 94 94 95 94 94 93 92 92 91 91 92 91 90 87 84 81 79 77 77 80 83 86 88 90 93 97 100 99 96 95 93 87 83 79 75 72 68 65 66 68 67 63 60
129 127 124 121 119 118 120 121 122 121 120 117 115 112 110 109 108 106 105 103 103 103 102 102 101 101 100 99 98 97 96 95 95 95 95 95 94 94 94 94 93 93 93 93 93 92 91 91 90 90 90 90 89 88 87 84 80 77 76 77 77 79 81 84 87 89 91 93 95 94 94 94 92 87 82 77 73 69 65 62 61 62 64 62 57
133 132 129 126 124 123 124 125 125 123 119 115 112 109 108 108 106 105 104 103 103 104 103 103 102 102 101 100 99 99 98 97 96 96 95 94 93 93 93 92 92 91 91 91 90 89 88 88 88 88 88 87 86 84 82 80 77 76 77 78 78 78 80 82 86 89 91 90 89 89 91 91 88 83 79 74 69 66 63 60 58 57 59 59 56
134 133 132 130 128 128 128 128 126 122 116 112 109 107 106 105 105 104 104 104 104 104 104 104 103 103 102 101 100 100 99 98 98 97 96 95 94 93 92 91 91 90 90 89 88 86 86 86 86 86 85 84 82 80 78 77 76 77 78 79 79 79 80 83 86 89 90 87 84 85 88 87 83 79 74 70 67 64 61 59 56 55 57 56 54
131 131 130 129 127 127 125 124 121 117 112 108 106 104 104 104 104 105 105 104 104 104 104 104 104 103 102 101 101 100 99 99 98 98 97 96 95 93 92 91 90 89 89 88 86 85 84 83 83 83 82 80 78 76 75 75 76 78 79 79 79 80 82 84 88 90 89 84 80 83 86 85 80 76 72 69 66 62 59 57 54 54 55 54 52
123 124 123 122 120 119 117 116 114 111 108 106 105 104 104 104 105 106 106 105 104 103 104 104 103 103 102 101 100 99 99 98 98 97 97 96 95 93 92 90 89 88 87 86 85 83 81 81 80 80 79 76 74 73 73 74 76 77 78 79 79 80 82 84 88 90 86 80 78 82 85 82 76 72 69 67 66 62 57 55 52 52 54 52 50
116 115 115 114 113 111 110 110 110 110 108 107 106 105 105 105 106 106 107 106 104 103 103 103 102 102 101 100 99 99 98 98 97 97 96 95 94 93 91 90 88 88 87 85 83 81 80 78 78 77 76 74 72 72 73 74 75 76 77 78 78 79 81 84 88 88 83 78 78 81 83 79 73 67 65 65 64 61 56 53 51 51 52 51 49
112 112 111 110 110 109 109 109 110 110 110 110 109 108 107 106 107 107 107 106 104 103 102 101 101 100 100 99 98 98 97 97 96 96 95 94 94 92 91 89 88 87 86 84 83 81 79 76 75 75 74 73 72 72 72 73 75 76 77 77 77 79 81 84 87 85 79 76 77 79 79 76 70 64 62 62 61 58 54 52 51 50 49 49 48
110 111 111 111 111 111 111 111 111 112 111 110 109 109 108 107 107 107 107 106 104 102 100 100 100 99 99 98 97 96 96 95 94 94 93 93 92 91 90 89 87 86 85 84 83 81 79 75 74 74 73 72 72 72 72 73 74 76 77 77 78 79 82 84 85 81 76 74 75 75 75 73 68 63 60 58 58 56 52 50 50 49 47 47 47
110 111 111 112 112 112 112 112 113 113 112 110 109 108 107 106 106 106 106 105 103 100 98 98 98 98 98 97 96 95 94 93 92 92 92 92 91 91 90 88 86 85 84 83 83 82 80 76 74 73 72 72 71 71 72 72 73 75 76 77 78 80 82 85 83 77 73 72 72 71 71 70 66 62 59 57 55 53 50 48 49 48 45 45 46
111 111 112 112 112 112 111 111 113 113 112 110 107 106 105 104 103 103 104 104 102 100 97 95 95 95 95 96 95 94 92 91 91 91 91 91 91 90 89 87 86 85 84 83 83 83 81 77 74 73 72 72 72 72 73 73 73 74 75 77 78 80 83 84 81 75 72 72 70 68 67 66 63 60 59 56 53 51 48 47 47 46 44 43 44
111 111 111 112 111 111 110 110 111 111 110 107 105 103 102 101 100 99 100 101 101 100 97 95 93 93 93 93 93 92 91 90 90 91 91 91 91 91 89 88 86 85 84 83 83 84 82 78 74 73 73 73 74 74 74 74 74 75 76 77 78 80 83 83 78 73 71 71 69 67 65 62 59 58 57 55 52 49 47 46 46 45 43 42 41
110 110 110 110 110 109 108 108 108 107 105 103 102 100 99 97 96 96 96 98 99 99 99 97 94 91 91 92 92 91 91 91 91 91 91 91 92 92 91 89 86 85 84 83 84 84 82 78 74 74 74 74 75 75 75 75 75 75 77 78 79 81 83 81 75 71 69 68 67 66 63 60 57 56 54 53 51 48 46 44 44 43 41 40 39
107 107 107 107 107 107 106 105 104 103 101 100 98 97 96 95 94 94 94 94 95 97 100 100 97 93 92 93 92 92 92 92 92 92 93 93 93 94 93 91 88 85 84 83 84 84 82 78 75 75 75 75 76 76 75 75 74 74 75 77 80 82 82 78 72 68 67 65 65 64 61 57 55 54 53 51 49 47 44 43 43 41 39 38 38
105 105 105 105 104 104 103 103 103 102 100 99 97 96 95 93 93 93 93 93 94 96 99 101 100 98 96 95 95 94 95 95 95 95 94 94 94 95 96 95 92 89 87 86 85 84 82 79 77 76 77 77 77 77 76 75 73 74 75 77 79 81 79 73 68 66 65 63 63 62 60 56 52 52 51 50 48 45 43 42 41 39 37 36 36
105 105 106 105 104 104 103 103 103 102 101 100 98 97 95 94 94 94 94 94 94 95 97 100 101 100 99 98 98 99 98 98 99 98 97 96 94 95 97 99 96 93 91 89 88 86 83 80 79 78 78 78 78 78 77 75 74 75 76 77 79 78 73 67 65 65 63 61 60 60 59 54 51 50 50 48 46 44 43 41 40 37 35 35 35
106 106 107 107 106 105 104 104 104 103 102 101 100 98 98 97 96 96 95 95 95 96 97 100 101 101 100 101 102 103 102 102 102 102 101 98 96 96 99 101 100 96 94 92 90 88 85 82 81 80 80 79 79 78 77 76 75 76 77 78 78 74 67 62 63 64 61 59 59 58 56 53 49 48 49 47 43 42 42 40 38 36 34 34 35
108 107 108 108 108 107 105 104 104 103 102 102 101 100 99 99 98 98 97 97 96 97 99 101 102 102 102 104 106 107 106 105 105 106 104 101 98 98 100 103 102 99 97 95 92 89 87 84 82 82 81 80 80 79 77 76 76 76 77 78 77 70 62 60 62 62 60 59 58 56 54 51 47 47 48 45 41 41 41 38 36 34 33 33 34
109 108 107 107 108 108 106 104 103 102 101 101 100 100 99 99 99 100 100 100 100 101 102 102 103 103 105 107 109 110 109 107 108 107 105 102 100 100 102 104 103 101 99 97 94 90 88 86 84 83 82 81 80 78 77 76 75 76 77 78 74 65 59 59 61 59 57 58 58 55 51 48 45 46 47 43 39 39 40 37 34 33 32 32 34
109 108 107 107 107 108 107 105 103 101 100 100 99 98 98 98 99 100 101 102 104 106 106 106 105 105 106 108 110 110 110 110 109 108 105 103 102 102 103 103 103 101 100 97 94 91 88 86 85 84 82 81 80 78 77 77 76 76 78 78 71 61 57 58 58 56 54 55 56 54 50 45 44 45 45 41 38 38 38 35 33 32 31 32 34
109 108 108 106 106 106 105 104 103 102 100 100 99 99 99 99 100 101 102 103 106 108 109 109 108 108 108 108 109 110 109 109 109 107 105 103 102 102 102 102 101 100 98 96 94 91 89 86 85 83 82 80 79 78 78 77 76 77 78 76 68 60 57 57 56 53 52 53 54 53 48 43 42 44 43 39 37 37 36 34 32 31 31 32 33
106 106 106 105 104 103 103 103 102 101 100 99 99 99 99 100 101 102 103 104 106 108 109 110 109 109 109 109 109 109 108 108 107 106 104 102 101 101 101 100 99 98 97 95 93 90 88 86 85 83 82 80 78 77 77 76 77 78 78 73 65 60 57 55 53 52 51 51 51 50 47 42 41 42 41 38 35 36 35 32 31 31 32 32 32
102 102 101 100 100 100 101 101 101 100 98 98 98 98 99 100 101 102 103 104 105 106 107 107 107 107 107 107 107 107 107 106 105 104 103 102 101 100 100 99 98 98 96 94 92 90 88 87 85 83 81 79 77 76 76 76 77 78 75 69 63 60 56 53 51 51 50 50 49 47 44 41 41 41 39 36 34 34 33 31 31 32 32 31 32
98 98 97 96 96 96 97 98 98 98 97 97 97 98 98 98 100 101 102 103 103 103 103 104 104 104 105 105 104 105 105 104 104 103 103 102 101 100 99 99 98 97 96 94 92 90 88 86 84 82 80 78 76 76 75 76 77 77 72 66 62 60 55 51 49 49 49 49 47 45 42 39 39 40 37 34 34 33 32 30 31 32 32 31 33
93 93 92 92 93 93 94 95 95 95 95 95 96 96 96 96 97 98 99 100 100 100 100 100 101 101 101 101 101 102 102 102 102 102 101 101 100 100 99 99 98 97 95 93 91 89 87 85 83 80 78 77 75 74 75 76 77 75 69 63 61 60 56 51 48 47 48 47 46 44 41 38 38 38 36 33 33 33 31 30 32 32 31 32 35
90 89 89 89 90 91 92 92 92 91 92 92 92 93 93 94 95 95 95 96 96 97 97 98 98 98 98 98 99 100 100 101 101 101 100 100 100 99 98 98 97 96 95 93 91 88 86 83 81 79 77 75 74 73 74 75 75 72 67 62 60 59 56 50 47 47 47 45 44 42 39 37 37 36 34 33 33 32 31 31 33 33 32 34 38
87 86 87 87 88 89 89 89 88 88 89 89 89 89 90 91 92 92 92 92 93 93 94 95 95 95 95 96 97 98 98 99 99 99 99 99 98 97 96 96 95 95 94 92 90 88 85 83 80 78 75 73 72 72 73 73 71 68 63 59 58 58 55 49 46 46 46 45 42 40 38 36 35 35 33 32 32 32 31 32 33 33 34 37 39
85 85 86 87 87 87 87 86 85 86 86 86 86 86 87 88 88 88 88 89 89 90 91 91 91 92 92 93 94 95 96 96 96 96 96 96 96 95 95 94 94 93 92 90 88 87 84 82 79 76 73 71 70 71 72 71 68 64 59 56 55 55 53 48 45 44 44 43 41 39 37 35 35 34 32 32 32 32 32 33 33 34 36 39 41
83 83 84 84 85 85 84 83 83 83 83 83 84 85 85 85 86 86 86 87 87 88 88 89 89 90 90 91 92 92 93 93 93 93 93 93 93 93 93 93 92 91 90 88 86 84 82 80 77 73 71 70 70 70 70 68 65 61 57 55 54 52 50 47 44 43 42 42 40 38 35 34 34 33 32 32 32 33 33 34 34 36 38 41 42
79 80 81 81 81 81 80 80 80 80 81 81 82 83 83 83 83 83 84 84 85 85 86 87 87 88 88 89 89 89 90 90 90 90 91 91 91 91 91 90 89 88 87 85 83 81 78 76 73 70 69 69 69 69 68 66 63 60 57 54 52 50 47 45 43 41 40 40 39 37 35 34 33 33 32 32 33 33 34 35 36 38 40 42 44
75 75 76 76 76 76 76 77 77 78 78 78 79 79 79 80 80 81 81 82 82 83 84 84 85 85 86 86 86 87 87 87 88 88 88 89 89 88 88 87 86 85 84 82 80 77 74 71 69 68 67 67 67 67 66 64 62 59 56 53 50 48 45 43 41 39 38 38 37 36 34 33 33 33 32 32 33 34 35 36 38 40 42 44 46
70 70 71 71 72 72 72 72 73 73 74 74 74 75 76 76 77 77 78 78 79 80 81 81 82 82 82 83 83 83 84 85 85 86 86 86 86 85 84 83 82 81 80 78 76 73 70 68 67 66 66 66 66 65 64 62 60 58 55 52 48 45 43 41 39 38 37 36 36 35 34 34 33 33 32 33 34 35 37 38 40 42 44 46 48
65 65 66 66 67 67 67 68 68 68 69 69 70 70 71 72 72 73 74 75 75 76 77 77 78 79 79 80 80 81 81 82 83 83 83 83 82 81 80 79 78 77 76 74 72 70 68 66 65 64 64 64 64 63 61 59 58 56 54 51 47 43 40 39 38 36 35 35 34 34 34 34 34 33 33 34 35 37 38 40 42 44 46 48 50
61 62 62 62 63 63 64 64 64 64 64 64 65 66 66 67 68 69 69 70 71 72 73 74 74 75 76 76 77 78 78 79 79 79 79 79 78 77 76 75 74 73 71 70 68 67 66 64 63 63 63 62 61 60 59 57 55 54 52 49 45 41 38 37 36 35 34 34 33 34 34 34 34 34 34 35 37 38 40 42 43 45 47 49 51
Wind_Direction
275 276 277 278 278 278 278 279 279 280 281 281 282 283 283 284 284 285 286 286 287 287 288 288 288 289 290 291 291 292 293 294 294 294 294 294 294 294 295 295 295 295 295 295 296 296 296 295 295 294 293 292 292 292 292 292 292 292 292 291 291 291 290 289 289 289 288 286 285 285 285 285 286 287 287 287 287 286 285 284 284 283 282 280 277
276 276 277 278 278 278 278 279 279 280 280 281 282 283 283 283 283 284 285 285 286 287 288 289 289 290 291 292 292 293 293 294 294 293 293 293 293 294 294 295 295 295 295 295 295 295 295 295 294 294 293 293 293 292 292 291 291 291 291 291 291 291 291 290 290 290 289 286 284 284 285 286 287 287 286 286 287 287 286 286 286 285 283 282 279
276 276 277 277 277 278 278 278 279 279 280 280 281 282 282 283 283 284 285 285 286 287 288 289 290 291 291 292 292 292 292 293 293 292 292 292 293 293 294 294 294 294 295 295 295 295 295 295 294 294 294 294 293 292 291 291 290 290 290 290 290 290 290 290 291 290 289 287 285 284 284 286 286 285 285 285 286 287 287 287 286 284 283 281 278
275 276 276 277 277 278 278 278 279 279 279 280 281 282 283 284 285 285 286 287 287 288 289 289 289 290 290 291 291 291 292 292 292 292 291 292 292 292 293 293 293 294 294 294 294 294 294 294 294 294 293 292 291 290 290 290 289 289 289 290 289 289 289 289 290 290 290 289 286 285 285 286 285 284 284 284 285 286 288 287 285 283 282 280 276
275 276 277 277 278 279 279 279 280 280 281 281 282 283 284 285 286 287 287 288 288 288 288 288 289 289 290 290 290 291 291 291 291 291 291 291 291 292 292 292 293 293 292 292 292 292 292 293 293 292 291 290 289 289 289 289 289 289 289 288 288 287 287 288 288 289 290 289 288 287 286 286 286 285 285 286 288 290 290 289 287 285 285 282 276
277 277 278 278 279 279 280 280 282 283 283 284 284 285 285 286 286 287 287 287 287 287 287 287 288 289 289 289 289 290 290 290 290 290 290 290 291 291 291 292 292 291 291 290 290 290 291 291 291 290 289 288 288 288 288 288 288 287 287 287 286 285 286 286 287 288 288 288 288 288 287 288 288 288 288 289 292 293 292 290 289 289 287 283 278
277 278 278 279 279 280 280 281 282 283 284 284 285 285 285 285 285 285 285 285 285 285 286 286 287 288 288 288 288 288 288 288 288 289 289 289 290 290 290 290 290 289 288 288 288 288 288 288 288 287 287 287 287 287 287 287 287 287 286 285 284 285 285 286 286 287 288 288 289 289 289 290 290 289 289 291 293 293 292 290 290 290 288 284 280
276 277 278 279 279 280 280 281 281 282 283 283 283 283 284 284 284 284 284 284 284 284 285 285 286 286 287 287 287 287 287 287 287 287 288 289 289 289 288 288 288 288 287 286 286 286 286 286 286 286 287 287 287 287 287 287 286 286 285 284 285 285 286 286 287 287 288 289 289 290 290 290 290 289 290 291 292 292 292 291 290 289 288 285 280
276 276 277 278 278 279 279 279 280 280 281 281 282 282 282 282 282 282 282 282 283 283 283 284 284 285 285 285 285 285 285 285 286 286 287 288 288 288 287 286 286 286 286 286 286 285 285 286 287 287 288 288 289 288 288 287 286 285 285 285 286 286 286 286 287 287 287 288 288 289 289 289 288 288 290 291 292 292 292 291 290 288 286 284 281
275 275 276 276 277 277 278 278 278 279 279 280 280 280 280 280 280 281 281 281 282 282 282 283 283 283 283 283 284 284 284 285 286 286 287 287 287 287 287 286 286 286 286 286 287 287 287 288 289 289 290 290 289 288 287 286 286 286 286 287 287 287 287 287 288 288 288 288 288 289 288 288 288 289 291 292 292 292 292 291 289 288 285 283 280
274 275 275 276 277 277 277 278 278 278 278 279 279 279 279 279 279 280 280 280 281 281 282 282 282 282 283 283 284 284 285 286 286 287 287 287 288 288 288 288 287 287 287 288 288 289 289 290 290 290 290 289 288 287 287 287 287 288 289 289 289 289 289 290 290 289 289 289 289 289 289 288 289 291 293 293 293 293 292 291 290 288 285 282 280
274 275 275 275 276 276 276 277 277 277 277 278 278 278 278 279 279 280 280 281 281 281 282 282 282 283 283 284 285 285 286 287 287 287 287 288 289 289 289 289 289 289 289 289 289 290 290 290 290 290 289 289 288 288 288 289 289 290 291 291 292 292 292 293 292 290 290 289 289 290 289 290 292 294 295 294 294 294 293 292 291 289 286 282 279
275 275 275 276 276 277 277 278 278 279 279 279 279 279 280 280 281 282 282 282 283 283 283 284 284 284 285 285 286 286 287 287 288 288 288 289 289 289 289 289 289 289 289 290 290 290 290 290 290 290 290 290 289 290 290 291 292 293 293 294 294 294 295 294 293 292 292 291 291 291 291 292 294 295 295 295 295 295 294 293 292 290 287 282 278
280 280 279 279 279 280 280 281 282 282 283 283 283 284 284 285 285 285 285 285 285 285 285 285 285 285 286 286 286 287 287 288 288 288 289 289 289 289 289 289 289 289 289 290 290 290 291 291 291 291 291 291 291 292 292 293 294 295 295 295 295 295 295 294 293 293 294 293 293 292 293 294 295 296 296 296 296 296 294 293 291 289 285 282 278
283 282 282 281 282 283 284 285 287 288 288 289 289 289 289 289 289 288 288 287 287 287 286 286 286 286 287 287 287 288 288 289 289 289 289 289 289 289 289 288 289 289 290 290 291 291 291 291 291 291 292 292 292 293 293 294 295 296 295 295 295 294 294 293 293 293 293 293 292 292 293 295 296 296 296 297 297 297 295 293 290 286 283 281 279
286 286 286 285 286 287 288 289 291 291 292 291 291 291 291 290 290 289 288 288 287 287 287 287 287 288 288 288 288 288 289 289 289 289 289 289 288 288 289 289 289 290 290 291 291 291 291 291 292 292 293 293 293 294 294 295 295 295 294 293 293 293 293 293 293 293 293 293 293 293 295 297 297 296 297 297 297 295 293 292 289 285 282 280 278
288 288 287 287 287 288 290 291 292 292 292 292 291 291 291 290 290 289 288 288 288 288 288 288 289 289 289 289 289 289 289 289 289 289 289 288 288 288 289 289 289 290 290 291 291 291 291 292 293 293 294 294 294 294 295 295 294 293 292 292 292 292 292 293 293 293 293 293 293 294 297 298 297 297 297 297 296 293 290 288 286 284 282 278 275
286 286 286 286 287 288 289 290 290 291 291 290 290 290 290 289 289 289 288 289 289 289 289 289 290 290 290 290 290 290 290 290 290 289 289 288 289 289 289 289 290 290 290 290 291 291 292 293 294 294 294 294 294 293 293 293 293 292 292 291 292 292 292 292 292 292 293 293 294 296 298 298 297 298 298 297 295 291 288 286 283 282 280 277 274
284 284 285 286 287 287 288 289 289 289 289 289 289 289 289 289 289 289 289 289 289 289 289 290 290 290 290 290 291 291 290 290 290 289 289 289 289 290 290 290 290 291 291 291 291 292 293 293 293 293 293 293 293 293 293 293 293 293 292 292 292 292 292 292 292 292 292 293 294 296 297 297 297 297 297 296 294 290 287 285 282 279 277 276 273
282 283 284 285 286 287 287 288 288 288 287 287 287 287 287 288 288 288 288 289 289 289 289 290 290 290 290 291 291 291 291 291 291 291 290 290 290 290 291 291 291 291 291 291 292 293 293 293 293 293 293 293 293 294 295 295 295 295 294 294 293 293 293 294 294 292 292 293 295 296 296 295 295 296 296 295 293 291 288 285 282 278 276 274 271
279 281 282 283 284 285 286 286 286 286 286 286 286 286 286 286 287 287 287 288 288 289 289 290 290 290 291 291 291 292 292 292 292 292 292 292 292 292 292 292 292 292 292 293 293 294 294 294 293 294 294 294 295 296 297 297 298 297 297 296 296 296 296 295 294 292 292 294 296 297 295 295 296 297 296 295 293 291 289 286 282 278 275 272 268
277 278 280 281 282 283 283 283 283 284 284 284 284 285 285 286 286 287 287 288 288 289 290 290 290 291 291 291 292 292 292 293 293 293 293 293 293 293 293 293 293 293 294 294 295 295 294 294 294 295 295 296 297 298 298 299 299 299 299 299 299 298 297 296 294 292 293 296 298 298 296 296 297 297 297 295 293 291 289 286 283 278 274 270 266
276 277 278 279 280 280 281 281 282 282 283 284 284 285 285 286 287 287 287 288 288 289 290 290 290 291 291 291 292 292 293 293 293 293 293 293 294 294 294 294 294 294 295 295 295 295 295 295 295 296 296 297 298 299 300 300 300 300 300 300 300 298 297 295 294 293 295 299 300 298 296 296 297 297 296 294 292 291 289 285 282 277 273 269 265
277 278 279 279 280 280 281 282 283 284 284 285 285 285 286 286 286 287 287 288 288 289 289 290 290 291 291 292 292 292 293 293 293 293 293 293 294 294 294 294 295 295 295 295 295 296 296 296 296 297 298 299 300 301 301 301 301 300 300 299 299 298 297 296 295 294 297 300 299 297 295 295 296 296 294 293 291 290 288 285 280 275 270 267 263
279 279 280 281 281 281 282 283 283 284 284 285 285 285 286 286 286 287 287 288 288 289 290 290 290 291 291 291 292 292 292 292 292 292 292 293 293 293 294 294 294 295 295 296 296 297 297 297 297 297 299 300 301 302 303 302 302 301 300 300 300 300 298 297 295 295 298 300 298 296 295 296 296 295 293 292 290 288 287 284 278 273 269 265 261
279 280 280 281 281 282 282 282 283 283 283 284 285 285 286 286 287 287 287 288 288 289 289 290 290 290 290 291 291 291 291 291 291 291 291 292 293 293 294 294 294 295 296 297 298 298 298 298 298 299 300 301 302 303 304 304 304 303 302 302 301 300 298 295 294 296 299 299 297 296 296 296 296 295 293 291 289 287 285 282 276 271 267 263 260
278 278 279 279 280 280 281 281 282 282 282 283 283 284 285 285 286 286 287 287 287 288 288 288 289 289 289 290 290 290 290 290 290 290 291 292 292 293 293 294 294 295 296 298 298 298 298 299 299 300 301 302 304 304 305 305 304 304 303 302 301 300 297 295 295 297 299 298 296 295 295 295 296 295 293 291 288 286 283 279 274 270 265 261 258
277 277 277 277 278 278 279 279 280 280 281 281 282 283 283 284 284 285 285 286 286 286 286 286 287 287 288 288 288 288 289 289 290 290 291 291 292 292 293 294 295 296 297 298 298 298 299 300 301 302 303 304 306 306 306 306 306 305 304 303 302 300 297 295 297 299 300 298 296 295 294 294 294 294 292 290 287 284 281 277 272 268 264 260 257
275 275 275 275 276 276 276 276 277 278 279 280 280 281 281 282 282 283 284 284 285 285 285 285 285 285 286 286 286 287 288 289 289 290 290 291 292 293 293 294 295 296 297 298 298 298 299 300 302 304 305 306 307 307 308 308 308 307 307 305 303 301 298 297 299 301 299 297 296 296 295 294 294 292 291 289 286 283 279 275 270 266 262 259 256
274 274 274 274 274 275 275 275 275 276 277 278 279 280 280 281 281 281 282 283 284 285 285 285 284 285 285 285 285 286 287 288 289 290 291 292 293 293 294 295 296 296 297 297 298 298 300 301 304 305 306 307 307 308 308 309 309 309 308 306 304 302 299 298 300 300 298 296 296 295 294 294 294 292 290 288 285 281 277 272 268 264 261 257 254
273 273 273 273 274 274 274 275 275 275 276 277 278 278 279 279 279 280 280 281 282 284 284 285 285 285 285 285 286 287 288 288 289 290 292 293 293 294 295 296 297 297 298 298 298 299 300 303 305 306 307 307 308 308 309 309 309 309 308 306 304 301 298 298 300 299 297 296 295 294 293 293 293 291 289 286 283 280 275 271 266 263 259 256 252
272 272 272 273 273 274 274 275 275 276 276 276 276 276 277 277 278 279 279 280 281 282 283 285 286 286 286 287 287 288 289 289 290 291 291 292 293 295 296 297 298 299 299 299 299 300 301 303 305 306 307 308 308 309 309 309 309 309 307 306 303 299 297 299 299 298 297 296 295 294 293 293 292 290 287 284 282 278 273 269 265 261 258 254 248
271 271 272 272 273 273 274 274 275 275 275 276 276 276 276 277 277 277 277 278 279 280 281 282 283 285 286 287 287 287 288 289 290 290 291 292 293 294 295 296 297 299 299 300 300 301 302 304 305 306 307 308 308 309 309 310 310 309 307 305 301 297 297 299 299 297 296 296 294 293 293 293 292 289 285 282 280 276 271 267 264 260 256 251 244
270 270 271 272 273 273 273 274 274 275 275 276 276 277 277 277 277 277 277 276 277 277 278 279 280 281 283 284 284 285 286 287 288 289 291 292 293 294 294 294 296 298 299 300 300 301 303 304 305 306 307 308 308 309 309 310 310 309 307 303 299 297 298 300 298 296 296 295 293 292 292 291 290 287 283 280 277 273 269 266 262 259 254 248 240
269 270 271 272 272 273 273 274 274 274 275 276 276 277 277 278 278 278 277 276 276 275 275 276 277 278 279 280 281 283 284 285 286 288 290 291 293 293 293 293 295 297 298 299 300 301 302 304 305 306 307 307 308 308 309 310 310 309 306 302 298 297 300 301 298 296 296 295 293 291 291 291 289 284 281 278 275 271 267 264 260 256 251 244 236
270 271 271 272 273 273 274 274 274 275 275 276 276 277 277 277 277 278 278 278 277 276 276 276 276 277 277 278 279 281 283 284 285 286 289 290 291 291 291 291 293 295 296 297 299 300 302 303 304 305 306 307 307 308 309 309 309 308 305 300 297 298 301 300 297 296 295 294 292 291 290 289 287 282 278 276 273 268 265 262 258 254 247 240 233
271 272 272 272 272 273 274 275 275 276 276 276 277 277 277 277 276 276 277 277 277 277 277 277 277 277 277 277 278 280 282 283 284 286 288 289 289 289 289 290 291 293 295 296 298 299 301 302 303 304 305 306 307 308 309 309 309 308 304 299 297 299 301 299 296 295 294 293 291 290 289 287 284 279 277 274 270 266 263 260 256 251 243 236 230
271 271 272 272 272 273 274 275 276 276 277 277 277 277 276 276 276 275 275 275 275 275 276 277 277 277 277 278 279 280 281 282 284 286 287 287 288 288 288 289 290 292 293 295 297 298 300 302 303 304 305 306 307 308 308 309 309 307 302 298 297 300 301 298 296 294 293 291 290 289 288 286 281 277 275 272 267 263 260 257 253 247 239 231 227
270 270 271 271 272 273 274 274 275 275 276 276 276 275 275 275 274 274 273 273 272 273 274 275 276 277 278 278 279 280 281 283 284 285 286 287 287 287 288 289 290 292 293 294 296 298 300 301 302 303 304 305 307 307 308 308 308 305 300 297 298 300 300 298 296 294 292 290 288 287 287 284 279 274 272 269 265 260 258 255 250 243 234 227 223
268 269 270 271 271 272 272 273 273 274 274 273 273 272 272 272 272 272 272 272 272 272 273 274 275 276 277 278 279 280 281 283 284 285 285 286 287 287 288 289 290 291 292 294 296 298 299 300 301 302 304 305 306 307 307 308 306 302 298 297 298 299 298 297 296 293 291 290 288 286 284 281 276 272 270 266 262 258 255 251 246 238 230 223 219
268 269 270 270 270 270 270 270 271 271 271 271 270 270 270 270 270 270 271 271 272 272 273 274 275 276 276 277 278 279 280 282 282 283 284 285 286 287 288 288 289 291 292 294 295 297 298 299 300 302 303 305 306 306 307 306 303 299 296 297 298 298 297 297 295 292 290 289 287 284 282 278 274 270 268 264 259 255 251 247 241 234 226 219 216
269 269 269 269 269 269 269 269 269 269 269 269 269 269 270 270 270 270 270 271 272 273 274 274 275 275 276 277 278 279 279 280 281 282 283 284 285 286 287 288 289 290 292 293 295 296 297 299 300 301 303 304 305 306 305 303 300 297 296 298 299 298 297 297 295 292 289 287 285 282 280 275 271 268 265 261 256 252 248 242 236 229 221 216 214
269 269 269 269 269 269 269 269 269 269 269 269 269 270 270 270 270 270 271 272 272 272 273 273 274 275 276 276 277 277 278 279 280 281 282 283 284 285 286 287 289 290 291 293 294 295 297 298 300 301 302 303 304 305 303 300 297 295 297 299 299 297 296 296 295 292 289 286 283 280 277 273 268 265 262 257 252 248 243 237 231 224 217 214 212
269 269 269 268 268 268 269 269 269 269 269 269 269 270 270 270 270 270 271 271 271 272 272 273 273 274 275 275 275 276 277 278 279 280 281 282 283 284 286 287 288 289 290 292 293 295 296 298 299 301 302 303 303 302 299 296 294 294 296 298 297 296 295 295 293 290 287 284 281 278 274 270 266 262 258 253 249 244 239 233 226 220 214 212 209
268 267 267 267 267 267 268 268 268 268 268 269 269 269 269 269 270 270 270 271 271 271 271 272 273 273 273 274 274 275 276 277 277 279 280 281 282 284 285 286 287 288 290 291 293 295 296 297 299 300 301 301 300 298 295 293 293 294 296 297 295 294 293 293 291 287 284 281 278 275 271 267 263 259 254 249 245 240 234 228 222 216 212 210 207
266 266 266 266 267 267 267 268 268 268 268 268 268 268 268 268 269 269 269 270 270 270 271 271 272 272 272 273 273 274 275 276 277 278 279 281 282 283 284 285 286 288 289 291 293 294 295 297 298 300 300 299 297 295 294 293 293 294 296 296 294 292 292 291 288 284 281 278 275 272 268 264 260 255 250 245 240 235 230 224 218 213 210 208 204
265 265 266 266 267 267 268 268 267 267 267 267 267 267 267 268 268 268 268 269 269 270 270 271 271 271 272 273 273 274 275 276 277 278 279 280 281 282 283 284 286 288 289 291 292 293 295 296 298 299 298 297 295 293 293 293 294 295 295 294 292 291 290 288 285 281 278 275 272 270 266 261 256 252 246 240 235 231 225 219 214 210 208 205 203
264 265 265 265 265 266 265 265 265 265 265 266 266 266 267 267 267 268 268 268 269 269 269 270 271 271 272 273 274 275 275 276 277 278 278 279 280 282 283 285 286 288 289 290 292 293 295 296 297 297 296 294 293 292 292 293 293 294 293 292 291 290 288 285 281 278 275 271 269 266 263 258 253 248 241 235 230 226 221 216 212 208 206 204 201
264 264 264 264 264 264 264 264 265 265 265 265 266 266 266 267 267 267 268 268 268 269 269 270 271 271 272 273 274 274 275 276 276 277 278 279 281 282 284 285 286 287 289 290 292 294 295 295 295 294 293 292 291 291 291 292 292 292 290 290 289 288 285 282 278 275 271 268 265 263 259 254 249 244 237 231 226 222 217 213 210 207 205 203 201
264 265 265 265 265 265 265 265 265 265 265 265 266 266 266 267 267 267 268 268 268 269 269 270 271 271 272 272 273 274 274 275 276 277 278 280 281 282 284 285 286 287 289 291 292 293 293 293 293 292 291 290 289 290 290 290 290 289 288 288 287 285 282 278 275 271 268 264 261 259 255 250 245 239 233 227 222 218 214 211 208 205 203 202 200
265 265 265 265 265 265 266 266 266 266 266 266 266 266 267 267 267 267 268 268 268 269 269 270 271 271 272 272 273 274 275 276 277 278 279 280 281 282 284 285 286 288 289 291 291 292 292 291 291 290 289 288 288 288 289 289 288 286 286 286 285 282 278 275 271 268 265 261 257 255 251 247 241 235 229 223 219 215 212 209 206 204 202 200 198
Height
10543 10542 10541 10540 10538 10535 10533 10532 10528 10525 10522 10519 10516 10512 10509 10506 10503 10500 10497 10493 10490 10487 10484 10481 10477 10474 10471 10467 10464 10460 10457 10453 10449 10445 10440 10435 10430 10426 10423 10419 10414 10410 10404 10399 10395 10393 10390 10386 10381 10377 10373 10370 10364 10358 10354 10349 10346 10342 10336 10334 10330 10323 10321 10319 10318 10327 10331 10320 10314 10320 10311 10299 10305 10304 10289 10290 10294 10286 10286 10290 10283 10279 10280 10281 10283
10530 10530 10529 10527 10525 10523 10521 10519 10516 10513 10510 10506 10503 10500 10497 10494 10491 10489 10486 10481 10478 10473 10470 10466 10462 10459 10456 10452 10450 10446 10443 10440 10435 10431 10427 10422 10417 10413 10409 10404 10400 10395 10390 10386 10381 10378 10375 10371 10367 10363 10360 10356 10350 10344 10341 10336 10331 10328 10323 10318 10315 10309 10302 10300 10299 10300 10308 10307 10295 10295 10295 10284 10282 10284 10272 10268 10273 10268 10264 10268 10266 10260 10259 10261 10263
10515 10516 10516 10514 10512 10510 10508 10506 10503 10500 10497 10494 10491 10487 10484 10480 10477 10475 10473 10469 10465 10461 10457 10453 10449 10445 10441 10438 10435 10432 10429 10425 10421 10418 10413 10409 10404 10399 10395 10390 10385 10381 10376 10371 10367 10363 10360 10357 10353 10350 10347 10343 10337 10331 10327 10323 10318 10314 10310 10304 10299 10295 10287 10281 10280 10279 10282 10288 10282 10274 10277 10275 10267 10263 10256 10249 10252 10252 10248 10248 10247 10244 10243 10242 10244
10503 10501 10501 10499 10498 10496 10494 10491 10488 10486 10484 10482 10478 10474 10470 10467 10463 10461 10459 10456 10452 10447 10443 10439 10435 10431 10428 10424 10421 10418 10415 10411 10407 10403 10399 10395 10391 10385 10380 10376 10371 10367 10362 10357 10353 10349 10346 10343 10339 10337 10334 10329 10324 10318 10314 10310 10305 10300 10296 10291 10285 10280 10275 10267 10262 10259 10259 10265 10266 10257 10254 10256 10253 10246 10237 10232 10237 10237 10231 10229 10227 10226 10227 10226 10224
10491 10489 10488 10486 10484 10482 10478 10476 10474 10471 10470 10468 10464 10460 10456 10453 10449 10446 10444 10441 10437 10433 10428 10425 10421 10417 10414 10411 10408 10404 10401 10397 10392 10388 10385 10381 10377 10371 10365 10361 10357 10353 10349 10344 10339 10336 10333 10330 10327 10323 10321 10317 10311 10306 10301 10296 10292 10287 10282 10277 10272 10266 10261 10255 10247 10243 10240 10241 10244 10241 10235 10232 10233 10228 10215 10210 10220 10220 10209 10205 10205 10203 10205 10207 10205
10477 10477 10476 10473 10471 10468 10465 10462 10460 10457 10455 10452 10449 10446 10442 10438 10435 10432 10429 10426 10422 10418 10413 10410 10406 10403 10400 10397 10394 10390 10386 10382 10378 10374 10370 10367 10362 10357 10352 10347 10343 10339 10335 10330 10326 10323 10320 10317 10314 10311 10307 10303 10299 10293 10289 10284 10279 10275 10270 10264 10259 10253 10249 10244 10237 10231 10227 10225 10225 10222 10218 10213 10210 10208 10198 10189 10197 10200 10188 10184 10187 10183 10181 10185 10185
10464 10464 10462 10460 10457 10455 10452 10450 10447 10444 10440 10437 10434 10431 10428 10424 10421 10417 10414 10411 10407 10403 10399 10395 10392 10388 10385 10382 10379 10376 10372 10368 10363 10360 10356 10352 10348 10344 10338 10334 10330 10326 10322 10318 10314 10311 10308 10305 10302 10299 10294 10289 10286 10281 10276 10272 10267 10263 10257 10251 10245 10241 10236 10231 10224 10218 10214 10212 10209 10203 10199 10196 10189 10186 10184 10176 10176 10179 10169 10165 10171 10166 10159 10164 10165
10450 10450 10448 10446 10444 10441 10440 10437 10434 10430 10427 10424 10420 10417 10413 10410 10406 10402 10398 10395 10391 10388 10384 10381 10377 10375 10372 10369 10366 10362 10358 10354 10350 10346 10342 10338 10334 10330 10325 10320 10317 10313 10309 10305 10302 10298 10295 10293 10289 10285 10281 10276 10272 10268 10263 10259 10256 10251 10244 10238 10233 10228 10224 10218 10211 10206 10202 10198 10196 10189 10183 10181 10172 10166 10168 10164 10160 10162 10154 10148 10152 10149 10141 10145 10145
10436 10435 10432 10431 10429 10427 10426 10423 10420 10417 10413 10410 10407 10403 10399 10395 10391 10387 10383 10380 10376 10373 10370 10367 10364 10361 10358 10355 10352 10348 10344 10340 10336 10333 10328 10324 10320 10317 10312 10308 10304 10300 10297 10292 10289 10285 10282 10280 10276 10272 10268 10263 10258 10255 10250 10245 10242 10238 10232 10226 10220 10215 10210 10206 10199 10194 10190 10188 10185 10178 10170 10167 10158 10151 10153 10152 10145 10146 10142 10134 10134 10132 10125 10128 10127
10422 10419 10418 10416 10413 10412 10410 10407 10405 10402 10399 10396 10392 10388 10384 10379 10375 10372 10368 10365 10362 10359 10356 10353 10350 10347 10343 10340 10337 10333 10329 10326 10322 10319 10314 10310 10307 10302 10299 10295 10291 10287 10284 10279 10275 10272 10269 10267 10263 10259 10254 10250 10245 10240 10236 10231 10227 10223 10219 10212 10205 10199 10194 10191 10186 10180 10175 10174 10173 10166 10157 10152 10146 10138 10137 10137 10132 10130 10128 10120 10118 10116 10110 10111 10110
10408 10405 10403 10400 10398 10396 10393 10391 10388 10385 10382 10380 10376 10372 10367 10364 10360 10357 10354 10351 10348 10345 10342 10338 10335 10332 10328 10325 10322 10318 10314 10311 10308 10304 10300 10296 10293 10288 10284 10280 10277 10273 10269 10266 10262 10259 10256 10253 10250 10246 10241 10236 10232 10226 10221 10218 10213 10209 10205 10197 10188 10181 10175 10172 10170 10165 10161 10159 10158 10152 10141 10134 10132 10127 10120 10119 10119 10117 10113 10106 10101 10099 10095 10095 10094
10392 10390 10388 10384 10382 10380 10377 10375 10371 10368 10366 10363 10359 10356 10352 10349 10346 10342 10339 10336 10333 10330 10327 10323 10320 10316 10313 10310 10307 10304 10300 10297 10293 10289 10286 10283 10279 10275 10270 10266 10262 10259 10255 10252 10249 10246 10243 10240 10237 10233 10227 10222 10217 10213 10209 10205 10201 10196 10191 10183 10174 10165 10157 10151 10148 10147 10146 10144 10143 10139 10129 10117 10116 10114 10104 10101 10103 10101 10098 10092 10086 10084 10081 10079 10078
10374 10373 10370 10367 10366 10364 10360 10357 10354 10352 10350 10346 10343 10340 10337 10334 10331 10327 10324 10320 10317 10314 10311 10307 10304 10301 10298 10295 10292 10290 10287 10283 10278 10274 10272 10269 10265 10262 10257 10252 10248 10245 10241 10238 10235 10232 10229 10227 10223 10218 10213 10207 10202 10199 10196 10192 10188 10184 10177 10169 10161 10152 10144 10135 10128 10127 10126 10123 10122 10122 10116 10105 10101 10100 10092 10085 10086 10085 10082 10078 10072 10070 10066 10062 10061
10356 10355 10352 10350 10349 10346 10343 10340 10338 10336 10333 10330 10327 10325 10322 10318 10315 10311 10308 10304 10301 10298 10295 10292 10289 10286 10284 10281 10278 10276 10273 10269 10264 10260 10257 10255 10251 10248 10244 10239 10235 10231 10228 10225 10222 10219 10215 10212 10209 10204 10198 10193 10187 10184 10182 10179 10176 10171 10164 10157 10149 10141 10133 10123 10116 10113 10108 10103 10102 10101 10098 10092 10086 10084 10078 10071 10069 10068 10067 10065 10061 10056 10052 10048 10046
10339 10337 10334 10333 10331 10328 10325 10323 10321 10319 10317 10314 10311 10309 10306 10303 10300 10296 10292 10289 10286 10283 10279 10277 10274 10271 10269 10267 10264 10262 10260 10255 10250 10247 10244 10241 10237 10234 10229 10225 10222 10218 10215 10212 10208 10205 10201 10198 10195 10190 10184 10179 10174 10170 10168 10166 10164 10159 10153 10147 10139 10132 10124 10113 10106 10103 10095 10090 10087 10082 10082 10079 10073 10069 10065 10058 10055 10051 10050 10052 10048 10041 10040 10039 10032
10320 10317 10316 10316 10313 10311 10309 10307 10305 10304 10302 10299 10297 10294 10291 10289 10285 10281 10277 10274 10271 10267 10264 10262 10260 10257 10255 10252 10250 10248 10245 10241 10237 10234 10231 10227 10223 10219 10215 10211 10208 10205 10201 10198 10194 10191 10187 10183 10180 10176 10170 10165 10160 10155 10153 10151 10151 10147 10142 10137 10130 10122 10114 10104 10097 10090 10082 10077 10073 10066 10065 10063 10058 10055 10051 10047 10045 10040 10037 10038 10031 10025 10029 10030 10020
10303 10301 10301 10300 10299 10297 10295 10293 10291 10289 10288 10285 10282 10279 10277 10274 10270 10266 10262 10259 10255 10252 10249 10247 10245 10243 10240 10237 10235 10234 10231 10227 10223 10220 10217 10213 10209 10206 10202 10198 10195 10192 10188 10184 10181 10177 10173 10169 10166 10161 10157 10151 10145 10142 10139 10138 10138 10134 10130 10126 10121 10113 10104 10096 10089 10080 10070 10063 10057 10053 10051 10046 10041 10040 10037 10033 10031 10028 10028 10028 10019 10012 10014 10016 10009
10287 10285 10286 10286 10285 10284 10282 10279 10277 10275 10273 10271 10268 10265 10263 10259 10255 10250 10247 10244 10241 10237 10235 10233 10230 10228 10225 10222 10220 10219 10217 10213 10209 10206 10202 10199 10196 10193 10189 10185 10182 10179 10175 10171 10167 10164 10159 10155 10151 10147 10143 10138 10132 10129 10126 10125 10124 10121 10116 10114 10110 10104 10095 10087 10080 10073 10065 10055 10045 10041 10038 10031 10025 10025 10024 10021 10018 10015 10015 10016 10010 10003 10001 10000 9999
10271 10269 10270 10271 10271 10271 10268 10265 10263 10260 10258 10256 10253 10251 10248 10243 10239 10235 10232 10230 10227 10224 10221 10218 10216 10213 10211 10209 10206 10204 10202 10199 10195 10192 10189 10186 10183 10180 10175 10172 10169 10166 10162 10158 10154 10151 10147 10143 10138 10133 10130 10126 10121 10116 10112 10110 10109 10106 10101 10098 10096 10092 10084 10076 10068 10062 10058 10051 10041 10033 10027 10019 10014 10012 10011 10008 10005 10002 10002 10002 9998 9994 9989 9987 9987
10255 10254 10253 10254 10255 10255 10252 10249 10246 10243 10241 10241 10239 10237 10233 10228 10224 10221 10219 10216 10213 10210 10207 10204 10201 10199 10196 10194 10192 10189 10186 10184 10180 10177 10174 10172 10170 10167 10162 10159 10156 10153 10148 10145 10142 10139 10135 10130 10125 10120 10116 10112 10108 10103 10098 10094 10092 10089 10084 10081 10079 10076 10071 10064 10055 10048 10044 10041 10035 10026 10017 10010 10006 10003 9999 9996 9993 9989 9988 9988 9986 9983 9979 9975 9975
10241 10239 10237 10238 10239 10239 10236 10232 10228 10226 10226 10226 10225 10222 10217 10213 10210 10207 10205 10203 10200 10196 10193 10189 10187 10185 10182 10180 10177 10174 10171 10168 10165 10162 10159 10156 10154 10152 10149 10145 10142 10139 10135 10131 10129 10126 10122 10117 10112 10108 10103 10099 10095 10090 10085 10080 10076 10072 10068 10064 10061 10057 10053 10048 10042 10034 10030 10029 10026 10015 10005 9999 9996 9993 9989 9986 9982 9979 9976 9974 9973 9970 9967 9964 9964
10227 10225 10223 10224 10224 10223 10222 10218 10213 10211 10211 10211 10209 10206 10203 10199 10195 10193 10191 10189 10186 10183 10179 10175 10172 10170 10168 10165 10162 10159 10156 10153 10150 10147 10144 10141 10139 10137 10135 10131 10128 10125 10122 10118 10115 10113 10109 10105 10101 10096 10092 10088 10083 10079 10074 10069 10063 10057 10052 10048 10044 10041 10037 10031 10024 10019 10017 10017 10013 10003 9992 9987 9986 9982 9977 9974 9971 9968 9966 9963 9961 9958 9955 9953 9954
10213 10211 10211 10210 10209 10208 10206 10203 10198 10196 10196 10195 10192 10190 10188 10184 10181 10178 10176 10174 10173 10169 10165 10161 10158 10156 10154 10151 10148 10145 10142 10139 10136 10133 10130 10127 10124 10122 10120 10118 10115 10112 10109 10105 10102 10100 10097 10093 10089 10084 10080 10077 10073 10068 10063 10057 10052 10046 10040 10036 10032 10027 10022 10016 10009 10005 10004 10004 9999 9989 9979 9976 9975 9972 9967 9963 9959 9956 9955 9953 9951 9948 9944 9943 9944
10196 10195 10194 10193 10192 10191 10188 10185 10181 10178 10177 10176 10175 10174 10173 10170 10167 10164 10161 10160 10158 10156 10152 10148 10145 10142 10139 10137 10135 10132 10129 10126 10123 10120 10116 10113 10111 10108 10106 10104 10102 10099 10096 10093 10090 10087 10085 10081 10077 10073 10069 10065 10061 10057 10052 10046 10040 10034 10029 10024 10020 10014 10008 10003 9997 9993 9993 9992 9986 9977 9968 9964 9964 9963 9958 9952 9948 9945 9945 9943 9940 9937 9935 9934 9935
10178 10176 10175 10174 10173 10171 10170 10168 10164 10162 10160 10159 10158 10158 10156 10155 10152 10149 10146 10144 10143 10141 10138 10134 10131 10128 10126 10124 10122 10119 10116 10113 10110 10106 10103 10100 10097 10095 10093 10091 10088 10086 10083 10080 10077 10074 10072 10069 10065 10061 10058 10054 10050 10046 10041 10034 10027 10021 10016 10011 10007 10001 9996 9991 9985 9982 9983 9980 9973 9965 9957 9952 9952 9951 9948 9943 9938 9935 9935 9933 9929 9927 9927 9926 9927
10161 10160 10158 10156 10154 10153 10153 10152 10148 10146 10144 10143 10143 10142 10140 10139 10136 10133 10131 10129 10128 10127 10125 10121 10118 10115 10113 10111 10109 10107 10104 10101 10098 10095 10091 10088 10085 10082 10080 10078 10075 10073 10070 10067 10063 10061 10058 10056 10053 10050 10047 10043 10040 10035 10031 10024 10017 10009 10003 9998 9994 9989 9983 9978 9974 9973 9973 9969 9962 9955 9947 9942 9940 9939 9937 9933 9929 9926 9925 9923 9919 9918 9919 9919 9920
10147 10145 10143 10141 10139 10138 10137 10136 10131 10128 10128 10129 10129 10128 10127 10124 10122 10120 10117 10115 10114 10114 10113 10110 10107 10103 10101 10098 10097 10095 10092 10089 10086 10082 10079 10076 10073 10070 10067 10065 10062 10060 10057 10055 10051 10047 10045 10043 10041 10039 10035 10031 10028 10023 10019 10014 10007 10000 9993 9986 9981 9976 9971 9965 9962 9962 9961 9957 9952 9946 9939 9933 9930 9928 9925 9923 9919 9917 9916 9914 9910 9909 9911 9912 9912
10131 10129 10128 10126 10125 10125 10124 10122 10117 10113 10113 10115 10116 10115 10114 10112 10110 10108 10104 10102 10101 10101 10101 10099 10096 10092 10090 10087 10085 10082 10079 10076 10072 10070 10067 10064 10061 10058 10055 10053 10050 10047 10045 10043 10039 10035 10033 10031 10028 10026 10023 10019 10015 10010 10006 10001 9995 9989 9982 9976 9970 9965 9959 9953 9951 9950 9947 9943 9940 9936 9931 9926 9922 9919 9915 9912 9909 9908 9907 9905 9903 9902 9904 9905 9906
10113 10113 10112 10111 10110 10110 10109 10107 10104 10101 10101 10103 10103 10102 10101 10100 10098 10096 10093 10089 10088 10087 10086 10085 10083 10081 10079 10076 10073 10070 10066 10063 10060 10057 10055 10052 10048 10045 10043 10040 10038 10035 10033 10031 10027 10023 10020 10018 10016 10013 10010 10007 10002 9998 9994 9989 9984 9977 9970 9964 9958 9953 9947 9942 9941 9940 9936 9931 9927 9924 9921 9917 9914 9910 9906 9903 9900 9899 9899 9897 9895 9895 9896 9898 9899
10096 10095 10095 10094 10093 10093 10093 10092 10090 10089 10090 10090 10090 10089 10088 10087 10085 10084 10081 10078 10075 10072 10070 10069 10069 10069 10067 10063 10061 10058 10054 10051 10047 10045 10043 10040 10036 10033 10030 10027 10026 10023 10021 10019 10016 10012 10008 10006 10004 10001 9998 9995 9991 9987 9983 9979 9974 9968 9960 9952 9946 9941 9936 9932 9931 9929 9925 9921 9917 9913 9910 9908 9904 9901 9898 9894 9891 9890 9890 9889 9888 9888 9889 9891 9893
10077 10076 10076 10076 10075 10075 10075 10076 10075 10075 10076 10077 10076 10074 10074 10073 10072 10071 10069 10066 10063 10059 10054 10051 10052 10054 10052 10049 10047 10044 10041 10038 10035 10032 10030 10028 10024 10020 10017 10014 10012 10010 10008 10006 10003 10000 9997 9994 9992 9990 9987 9983 9980 9976 9972 9969 9964 9959 9952 9944 9936 9930 9925 9923 9921 9918 9915 9911 9907 9902 9900 9899 9896 9892 9889 9886 9883 9881 9882 9882 9881 9881 9883 9884 9886
10059 10058 10058 10058 10058 10058 10059 10059 10058 10058 10059 10060 10059 10060 10061 10060 10059 10057 10056 10055 10052 10047 10041 10037 10035 10036 10036 10034 10032 10029 10027 10024 10022 10020 10017 10015 10012 10008 10004 10001 9999 9997 9995 9992 9989 9987 9985 9983 9981 9978 9975 9972 9968 9964 9961 9957 9953 9948 9942 9936 9929 9921 9916 9913 9911 9907 9904 9902 9898 9893 9890 9890 9888 9884 9880 9878 9875 9874 9874 9874 9874 9875 9876 9878 9880
10040 10040 10040 10041 10043 10043 10043 10043 10042 10042 10042 10042 10043 10045 10047 10047 10046 10044 10043 10042 10040 10036 10030 10024 10021 10020 10020 10019 10017 10015 10013 10011 10009 10006 10004 10003 10001 9998 9993 9989 9986 9983 9981 9979 9976 9974 9972 9971 9969 9967 9963 9961 9957 9953 9949 9945 9941 9936 9931 9925 9919 9913 9909 9905 9900 9897 9895 9892 9888 9884 9882 9880 9878 9875 9872 9870 9868 9866 9866 9867 9867 9868 9870 9872 9874
10022 10022 10022 10024 10026 10027 10028 10028 10027 10026 10027 10027 10028 10030 10031 10032 10032 10031 10030 10029 10027 10023 10018 10013 10009 10008 10008 10006 10003 10001 10000 9998 9996 9993 9991 9990 9989 9987 9982 9977 9973 9971 9969 9966 9964 9962 9960 9959 9957 9955 9952 9949 9946 9942 9938 9934 9930 9925 9919 9912 9906 9903 9900 9896 9891 9887 9885 9882 9879 9875 9873 9872 9870 9867 9863 9862 9861 9859 9858 9860 9861 9862 9864 9866 9869
10005 10007 10008 10008 10010 10011 10013 10014 10013 10013 10014 10014 10015 10016 10016 10017 10017 10016 10016 10015 10012 10008 10004 10000 9998 9998 9997 9995 9991 9988 9987 9986 9983 9980 9979 9978 9977 9975 9971 9966 9962 9959 9957 9955 9952 9951 9949 9947 9945 9943 9941 9938 9934 9931 9928 9924 9920 9915 9908 9901 9895 9893 9891 9887 9882 9878 9875 9872 9869 9867 9865 9863 9862 9859 9855 9854 9854 9853 9852 9853 9855 9857 9859 9861 9864
9990 9992 9994 9996 9996 9996 9997 9999 10000 10001 10002 10002 10002 10003 10003 10004 10003 10001 9999 9998 9995 9991 9988 9986 9986 9986 9985 9982 9978 9975 9974 9974 9971 9968 9967 9966 9965 9963 9959 9955 9951 9948 9945 9943 9941 9940 9938 9936 9934 9932 9930 9927 9924 9920 9917 9913 9910 9904 9896 9889 9885 9883 9882 9878 9873 9870 9867 9863 9860 9858 9857 9855 9853 9851 9848 9847 9848 9846 9846 9847 9849 9851 9854 9856 9858
9975 9978 9980 9983 9983 9982 9983 9985 9986 9987 9988 9988 9989 9989 9989 9988 9987 9985 9983 9981 9978 9974 9972 9971 9971 9971 9970 9968 9966 9963 9962 9960 9958 9956 9955 9955 9953 9951 9947 9943 9940 9937 9935 9932 9930 9928 9927 9925 9923 9922 9919 9916 9913 9909 9905 9902 9898 9893 9885 9877 9873 9873 9873 9869 9865 9862 9859 9855 9851 9849 9848 9847 9845 9843 9841 9841 9841 9840 9840 9841 9843 9846 9848 9850 9853
9962 9964 9966 9968 9969 9969 9970 9971 9971 9972 9973 9974 9974 9974 9972 9971 9970 9968 9967 9965 9962 9959 9957 9956 9956 9955 9954 9954 9952 9950 9949 9948 9946 9944 9944 9943 9941 9938 9935 9931 9929 9926 9924 9921 9919 9917 9916 9914 9912 9910 9908 9905 9902 9899 9895 9891 9886 9881 9874 9867 9863 9863 9862 9859 9856 9853 9851 9847 9843 9840 9840 9839 9838 9835 9834 9834 9835 9835 9834 9836 9838 9841 9843 9845 9849
9947 9948 9949 9951 9953 9954 9955 9955 9956 9957 9959 9959 9959 9957 9955 9954 9952 9951 9950 9948 9947 9945 9944 9942 9941 9941 9940 9939 9937 9936 9935 9934 9933 9932 9931 9929 9927 9925 9922 9919 9917 9915 9912 9910 9907 9906 9904 9903 9901 9899 9896 9894 9892 9889 9885 9880 9875 9869 9862 9856 9854 9853 9852 9850 9847 9844 9841 9839 9836 9833 9832 9831 9830 9828 9827 9828 9829 9829 9829 9831 9834 9836 9838 9840 9844
9931 9932 9934 9937 9939 9939 9939 9939 9940 9941 9943 9944 9942 9940 9939 9938 9936 9935 9934 9933 9932 9932 9931 9930 9929 9928 9927 9925 9924 9923 9922 9921 9920 9919 9917 9915 9914 9912 9909 9907 9905 9902 9900 9898 9896 9895 9893 9892 9890 9888 9885 9883 9881 9878 9874 9870 9864 9857 9851 9847 9845 9844 9843 9842 9839 9836 9833 9830 9828 9826 9825 9824 9822 9821 9821 9822 9823 9823 9825 9827 9829 9831 9833 9836 9839
9918 9919 9922 9924 9925 9924 9924 9924 9924 9926 9927 9927 9925 9924 9923 9923 9922 9920 9920 9919 9918 9918 9918 9918 9917 9916 9915 9914 9913 9911 9910 9909 9908 9906 9904 9902 9901 9899 9897 9895 9892 9890 9888 9886 9885 9884 9882 9881 9879 9877 9875 9873 9870 9867 9864 9859 9853 9846 9841 9838 9836 9834 9833 9833 9831 9828 9825 9822 9820 9818 9818 9817 9815 9814 9815 9816 9817 9818 9820 9822 9824 9826 9828 9831 9834
9903 9905 9907 9908 9908 9908 9908 9907 9909 9910 9911 9910 9909 9909 9909 9908 9907 9906 9906 9906 9905 9906 9906 9905 9904 9903 9902 9902 9901 9899 9898 9897 9895 9893 9892 9890 9889 9887 9885 9883 9880 9878 9876 9875 9874 9873 9871 9870 9868 9866 9864 9862 9859 9856 9853 9848 9841 9835 9832 9829 9826 9824 9823 9824 9822 9820 9817 9814 9812 9811 9811 9810 9809 9808 9809 9811 9812 9813 9815 9817 9819 9821 9824 9826 9829
9887 9889 9891 9892 9892 9891 9891 9892 9894 9895 9895 9894 9894 9894 9894 9893 9892 9892 9893 9894 9893 9893 9892 9891 9890 9890 9890 9890 9889 9887 9885 9884 9883 9882 9880 9879 9877 9875 9873 9871 9869 9866 9865 9864 9863 9861 9860 9859 9857 9856 9854 9851 9849 9846 9842 9836 9831 9826 9823 9821 9818 9815 9814 9815 9813 9811 9808 9806 9805 9804 9804 9804 9803 9803 9804 9805 9806 9808 9810 9813 9814 9816 9819 9821 9824
9873 9875 9876 9876 9876 9875 9876 9877 9879 9879 9879 9879 9880 9880 9879 9879 9878 9879 9880 9880 9880 9879 9879 9878 9878 9878 9878 9877 9876 9874 9873 9872 9871 9870 9869 9867 9865 9864 9862 9859 9857 9855 9853 9853 9852 9850 9849 9847 9846 9845 9843 9841 9839 9835 9830 9825 9821 9818 9816 9814 9810 9807 9806 9806 9805 9803 9800 9799 9798 9798 9797 9797 9797 9797 9799 9800 9801 9803 9805 9808 9810 9812 9815 9817 9820
9860 9861 9861 9860 9860 9860 9861 9863 9864 9864 9865 9866 9866 9866 9865 9865 9865 9866 9866 9866 9866 9866 9865 9865 9865 9865 9865 9864 9863 9862 9861 9860 9859 9858 9857 9855 9854 9852 9851 9849 9846 9844 9843 9842 9841 9839 9838 9836 9835 9834 9832 9830 9827 9823 9818 9813 9810 9808 9807 9806 9803 9800 9798 9798 9797 9795 9793 9791 9790 9791 9790 9790 9790 9792 9794 9795 9796 9798 9801 9803 9805 9808 9810 9813 9817
9846 9846 9845 9846 9846 9846 9848 9850 9851 9851 9852 9852 9852 9852 9851 9851 9852 9853 9852 9852 9853 9852 9852 9852 9852 9852 9852 9851 9851 9850 9850 9849 9848 9847 9846 9844 9843 9841 9839 9837 9835 9834 9833 9832 9831 9830 9828 9826 9825 9823 9821 9818 9815 9810 9805 9801 9799 9797 9797 9796 9795 9792 9791 9790 9789 9788 9786 9784 9783 9784 9784 9784 9785 9786 9789 9790 9792 9794 9796 9798 9801 9804 9806 9809 9813
9833 9833 9832 9833 9834 9835 9836 9838 9838 9838 9838 9838 9838 9838 9838 9839 9839 9840 9839 9840 9840 9840 9840 9840 9839 9839 9839 9839 9838 9838 9838 9837 9836 9835 9834 9833 9832 9830 9828 9826 9825 9824 9823 9821 9820 9819 9818 9816 9814 9813 9810 9806 9802 9798 9794 9791 9789 9787 9787 9787 9786 9784 9783 9782 9781 9781 9779 9778 9777 9777 9777 9778 9779 9781 9783 9785 9787 9789 9791 9794 9796 9799 9802 9806 9810
9821 9820 9821 9822 9822 9823 9824 9824 9824 9824 9825 9825 9825 9826 9826 9827 9827 9827 9827 9828 9828 9828 9828 9828 9827 9827 9827 9827 9827 9827 9826 9825 9824 9823 9822 9821 9820 9818 9817 9816 9815 9813 9812 9811 9809 9809 9808 9806 9804 9802 9799 9795 9791 9787 9784 9782 9779 9778 9778 9778 9777 9776 9775 9774 9774 9773 9772 9771 9771 9771 9771 9772 9773 9776 9778 9781 9783 9785 9787 9789 9792 9795 9799 9803 9806
9808 9809 9809 9810 9810 9810 9811 9812 9812 9813 9813 9813 9814 9815 9814 9815 9815 9815 9815 9816 9816 9816 9816 9816 9816 9815 9815 9815 9815 9815 9814 9813 9812 9811 9810 9809 9808 9807 9807 9806 9804 9802 9801 9800 9799 9798 9797 9795 9793 9791 9788 9784 9781 9778 9775 9773 9771 9770 9769 9769 9769 9769 9768 9767 9766 9766 9765 9765 9765 9765 9765 9766 9768 9771 9773 9776 9778 9780 9782 9785 9788 9792 9795 9799 9803
9796 9797 9797 9797 9798 9798 9799 9800 9801 9801 9802 9802 9802 9803 9803 9803 9804 9804 9804 9804 9804 9804 9804 9804 9804 9804 9804 9804 9803 9803 9802 9801 9800 9799 9798 9798 9797 9797 9796 9795 9794 9792 9790 9789 9788 9787 9786 9784 9783 9780 9777 9774 9771 9768 9766 9765 9763 9761 9761 9761 9762 9761 9761 9760 9759 9759 9759 9759 9759 9759 9759 9761 9763 9766 9768 9771 9773 9776 9778 9780 9784 9788 9792 9796 9800
9784 9785 9785 9786 9786 9787 9787 9788 9789 9790 9790 9791 9791 9791 9792 9792 9792 9792 9793 9793 9792 9793 9793 9793 9793 9793 9792 9792 9791 9791 9790 9789 9789 9788 9787 9787 9787 9787 9786 9785 9783 9782 9780 9779 9777 9776 9775 9773 9772 9769 9766 9764 9762 9759 9757 9756 9754 9753 9753 9754 9754 9754 9753 9753 9752 9752 9752 9752 9753 9754 9754 9755 9758 9761 9764 9766 9769 9771 9774 9776 9780 9784 9789 9793 9797